User: anonymous   Login
Location: Newsoms
(36.6240°N, 77.1250°W)
Time: 16:51:08
(UTC-04:00)
Language:

BREEZE-M DEB (TANK) - Orbit

View from above orbital plane
View from above orbital plane
View from above satellite
View from above satellite

Ground track
Ground track

The orbit data is extracted from the following two-line orbital elements,

1 29649U 06056B   17084.70472048 +.00002481 +00000-0 +56533-3 0  9999
2 29649 049.4929 294.7094 5373480 109.2651 314.4425 04.99338219183618
Epoch (UTC): 25 March 2017 16:54:47
Eccentricity: 0.5373480
inclination: 49.4929°
perigee height: 311 km
apogee height: 15850 km
right ascension of ascending node: 294.7094°
argument of perigee: 109.2651°
revolutions per day: 4.99338219
mean anomaly at epoch: 314.4425°
orbit number at epoch: 18361

The dashed part of the orbit path shows where the satellite is in the earth's shadow,  

DLR